Time,TemperatureF,DewpointF,PressureIn,WindDirection,WindDirectionDegrees,WindSpeedMPH,WindSpeedGustMPH,Humidity,HourlyPrecipIn,Conditions,Clouds,dailyrainin,SoftwareType,DateUTC
2013-03-06 00:04:00,33.8,32.5,24.92,SW,223,30.0,-999.0,95,-99.99,,,-99.99,dwt +perl,2013-03-06 08:04:00,
2013-03-06 00:09:00,33.8,32.5,24.92,SSW,199,24.0,-999.0,95,-99.99,,,-99.99,dwt +perl,2013-03-06 08:09:00,
2013-03-06 00:14:00,33.9,32.6,24.92,SW,230,22.0,-999.0,95,-99.99,,,-99.99,dwt +perl,2013-03-06 08:14:00,
2013-03-06 00:19:00,33.8,32.8,24.92,SW,214,28.0,-999.0,96,-99.99,,,-99.99,dwt +perl,2013-03-06 08:19:00,
2013-03-06 00:24:00,33.9,32.9,24.93,West,266,18.0,-999.0,96,-99.99,,,-99.99,dwt +perl,2013-03-06 08:24:00,
2013-03-06 00:29:00,34.1,33.1,24.92,SSW,193,35.0,-999.0,96,-99.99,,,-99.99,dwt +perl,2013-03-06 08:29:00,
2013-03-06 00:34:00,33.9,32.9,24.93,SW,221,22.0,-999.0,96,-99.99,,,-99.99,dwt +perl,2013-03-06 08:34:00,
2013-03-06 00:39:00,33.9,32.9,24.93,WSW,243,22.0,-999.0,96,-99.99,,,-99.99,dwt +perl,2013-03-06 08:39:00,
2013-03-06 00:44:00,33.8,32.8,24.93,SW,222,22.0,-999.0,96,-99.99,,,-99.99,dwt +perl,2013-03-06 08:44:00,
2013-03-06 00:49:00,33.8,32.8,24.93,West,260,22.0,-999.0,96,-99.99,,,-99.99,dwt +perl,2013-03-06 08:49:00,
2013-03-06 00:54:00,33.8,32.8,24.93,SW,222,17.0,-999.0,96,-99.99,,,-99.99,dwt +perl,2013-03-06 08:54:00,
2013-03-06 00:59:00,33.8,32.8,24.93,SW,222,23.0,-999.0,96,-99.99,,,-99.99,dwt +perl,2013-03-06 08:59:00,
2013-03-06 01:04:00,33.8,32.8,24.93,SSW,202,20.0,-999.0,96,-99.99,,,-99.99,dwt +perl,2013-03-06 09:04:00,
2013-03-06 01:09:00,33.8,32.8,24.94,SSW,204,48.0,-999.0,96,-99.99,,,-99.99,dwt +perl,2013-03-06 09:09:00,
2013-03-06 01:14:00,33.8,32.8,24.93,South,185,26.0,-999.0,96,-99.99,,,-99.99,dwt +perl,2013-03-06 09:14:00,
2013-03-06 01:19:00,33.8,32.8,24.93,West,268,21.0,-999.0,96,-99.99,,,-99.99,dwt +perl,2013-03-06 09:19:00,
2013-03-06 01:24:00,33.9,32.9,24.93,SW,230,30.0,-999.0,96,-99.99,,,-99.99,dwt +perl,2013-03-06 09:24:00,
2013-03-06 01:29:00,34.1,33.1,24.93,SW,216,35.0,-999.0,96,-99.99,,,-99.99,dwt +perl,2013-03-06 09:29:00,
2013-03-06 01:34:00,34.0,33.0,24.94,SW,235,22.0,-999.0,96,-99.99,,,-99.99,dwt +perl,2013-03-06 09:34:00,
2013-03-06 01:39:00,34.1,33.1,24.93,SW,233,15.0,-999.0,96,-99.99,,,-99.99,dwt +perl,2013-03-06 09:39:00,
2013-03-06 01:44:00,34.2,33.2,24.92,WSW,247,15.0,-999.0,96,-99.99,,,-99.99,dwt +perl,2013-03-06 09:44:00,
2013-03-06 01:49:00,34.2,33.2,24.92,South,189,31.0,-999.0,96,-99.99,,,-99.99,dwt +perl,2013-03-06 09:49:00,
2013-03-06 01:54:00,34.3,33.3,24.91,South,191,44.0,-999.0,96,-99.99,,,-99.99,dwt +perl,2013-03-06 09:54:00,
2013-03-06 01:56:00,34.3,33.5,24.91,SSW,212,40.0,-999.0,97,-99.99,,,-99.99,dwt +perl,2013-03-06 09:56:00,
2013-03-06 01:59:00,34.3,33.3,24.92,SW,223,52.0,-999.0,96,-99.99,,,-99.99,dwt +perl,2013-03-06 09:59:00,
2013-03-06 02:04:00,34.3,33.5,24.91,SSW,212,40.0,-999.0,97,-99.99,,,-99.99,dwt +perl,2013-03-06 10:04:00,
2013-03-06 02:19:00,34.2,33.4,24.93,South,189,36.0,-999.0,97,-99.99,,,-99.99,dwt +perl,2013-03-06 10:19:00,
2013-03-06 02:24:00,34.3,33.5,24.92,SW,215,16.0,-999.0,97,-99.99,,,-99.99,dwt +perl,2013-03-06 10:24:00,
2013-03-06 02:29:00,34.3,33.5,24.92,WSW,239,42.0,-999.0,97,-99.99,,,-99.99,dwt +perl,2013-03-06 10:29:00,
2013-03-06 02:34:00,34.4,33.6,24.94,SW,234,27.0,-999.0,97,-99.99,,,-99.99,dwt +perl,2013-03-06 10:34:00,
2013-03-06 02:39:00,34.6,33.8,24.91,SW,223,48.0,-999.0,97,-99.99,,,-99.99,dwt +perl,2013-03-06 10:39:00,
2013-03-06 02:44:00,34.4,33.6,24.92,SW,216,24.0,-999.0,97,-99.99,,,-99.99,dwt +perl,2013-03-06 10:44:00,
2013-03-06 02:49:00,34.5,33.7,24.91,SSW,206,45.0,-999.0,97,-99.99,,,-99.99,dwt +perl,2013-03-06 10:49:00,
2013-03-06 02:54:00,34.6,33.8,24.92,WSW,251,26.0,-999.0,97,-99.99,,,-99.99,dwt +perl,2013-03-06 10:54:00,
2013-03-06 02:59:00,34.7,33.9,24.92,WSW,239,29.0,-999.0,97,-99.99,,,-99.99,dwt +perl,2013-03-06 10:59:00,
2013-03-06 03:04:00,34.6,33.8,24.92,SW,228,37.0,-999.0,97,-99.99,,,-99.99,dwt +perl,2013-03-06 11:04:00,
2013-03-06 03:09:00,34.5,33.7,24.92,SSW,212,35.0,-999.0,97,-99.99,,,-99.99,dwt +perl,2013-03-06 11:09:00,
2013-03-06 03:14:00,34.4,33.6,24.92,SW,224,36.0,-999.0,97,-99.99,,,-99.99,dwt +perl,2013-03-06 11:14:00,
2013-03-06 03:19:00,34.4,33.6,24.92,SW,219,20.0,-999.0,97,-99.99,,,-99.99,dwt +perl,2013-03-06 11:19:00,
2013-03-06 03:24:00,34.3,33.5,24.91,SW,228,26.0,-999.0,97,-99.99,,,-99.99,dwt +perl,2013-03-06 11:24:00,
2013-03-06 03:29:00,34.4,33.6,24.93,SSW,212,27.0,-999.0,97,-99.99,,,-99.99,dwt +perl,2013-03-06 11:29:00,
2013-03-06 03:34:00,34.3,33.5,24.92,WSW,254,37.0,-999.0,97,-99.99,,,-99.99,dwt +perl,2013-03-06 11:34:00,
2013-03-06 03:39:00,34.2,33.4,24.92,SW,215,27.0,-999.0,97,-99.99,,,-99.99,dwt +perl,2013-03-06 11:39:00,
2013-03-06 03:44:00,34.3,33.5,24.93,SW,224,31.0,-999.0,97,-99.99,,,-99.99,dwt +perl,2013-03-06 11:44:00,
2013-03-06 03:49:00,34.2,33.4,24.93,WSW,241,24.0,-999.0,97,-99.99,,,-99.99,dwt +perl,2013-03-06 11:49:00,
2013-03-06 03:54:00,33.9,33.1,24.93,SW,223,20.0,-999.0,97,-99.99,,,-99.99,dwt +perl,2013-03-06 11:54:00,
2013-03-06 03:59:00,33.9,33.1,24.94,SW,228,23.0,-999.0,97,-99.99,,,-99.99,dwt +perl,2013-03-06 11:59:00,
2013-03-06 04:04:00,33.7,32.9,24.94,SW,233,21.0,-999.0,97,-99.99,,,-99.99,dwt +perl,2013-03-06 12:04:00,
2013-03-06 04:09:00,33.7,32.9,24.94,WSW,237,32.0,-999.0,97,-99.99,,,-99.99,dwt +perl,2013-03-06 12:09:00,
2013-03-06 04:14:00,33.7,32.9,24.94,SSW,199,12.0,-999.0,97,-99.99,,,-99.99,dwt +perl,2013-03-06 12:14:00,
2013-03-06 04:19:00,33.7,32.9,24.94,SSW,209,21.0,-999.0,97,-99.99,,,-99.99,dwt +perl,2013-03-06 12:19:00,
2013-03-06 04:24:00,33.7,32.9,24.95,SW,223,36.0,-999.0,97,-99.99,,,-99.99,dwt +perl,2013-03-06 12:24:00,
2013-03-06 04:29:00,33.8,33.0,24.95,WSW,240,24.0,-999.0,97,-99.99,,,-99.99,dwt +perl,2013-03-06 12:29:00,
2013-03-06 04:34:00,33.7,32.9,24.95,WSW,237,14.0,-999.0,97,-99.99,,,-99.99,dwt +perl,2013-03-06 12:34:00,
2013-03-06 04:39:00,33.6,32.8,24.95,WSW,249,8.0,-999.0,97,-99.99,,,-99.99,dwt +perl,2013-03-06 12:39:00,
2013-03-06 04:44:00,33.7,32.9,24.95,WSW,246,14.0,-999.0,97,-99.99,,,-99.99,dwt +perl,2013-03-06 12:44:00,
2013-03-06 04:49:00,33.6,32.8,24.96,SW,219,12.0,-999.0,97,-99.99,,,-99.99,dwt +perl,2013-03-06 12:49:00,
2013-03-06 04:54:00,33.3,32.5,24.95,SW,223,17.0,-999.0,97,-99.99,,,-99.99,dwt +perl,2013-03-06 12:54:00,
2013-03-06 04:59:00,33.2,32.4,24.95,SSW,202,17.0,-999.0,97,-99.99,,,-99.99,dwt +perl,2013-03-06 12:59:00,
2013-03-06 05:04:00,33.0,32.2,24.95,SSW,201,26.0,-999.0,97,-99.99,,,-99.99,dwt +perl,2013-03-06 13:04:00,
2013-03-06 05:09:00,33.0,32.2,24.96,SSW,201,24.0,-999.0,97,-99.99,,,-99.99,dwt +perl,2013-03-06 13:09:00,
2013-03-06 05:14:00,33.1,32.3,24.96,SSW,203,19.0,-999.0,97,-99.99,,,-99.99,dwt +perl,2013-03-06 13:14:00,
2013-03-06 05:19:00,32.9,32.1,24.96,SW,229,22.0,-999.0,97,-99.99,,,-99.99,dwt +perl,2013-03-06 13:19:00,
2013-03-06 05:24:00,32.6,31.8,24.96,WSW,247,18.0,-999.0,97,-99.99,,,-99.99,dwt +perl,2013-03-06 13:24:00,
2013-03-06 05:29:00,32.7,31.9,24.97,WSW,249,18.0,-999.0,97,-99.99,,,-99.99,dwt +perl,2013-03-06 13:29:00,
2013-03-06 05:34:00,32.8,32.0,24.97,SW,231,16.0,-999.0,97,-99.99,,,-99.99,dwt +perl,2013-03-06 13:34:00,
2013-03-06 05:39:00,32.8,32.0,24.97,SSW,204,10.0,-999.0,97,-99.99,,,-99.99,dwt +perl,2013-03-06 13:39:00,
2013-03-06 05:44:00,32.6,31.8,24.98,SW,222,11.0,-999.0,97,-99.99,,,-99.99,dwt +perl,2013-03-06 13:44:00,
2013-03-06 05:49:00,32.4,31.6,24.98,SSW,208,17.0,-999.0,97,-99.99,,,-99.99,dwt +perl,2013-03-06 13:49:00,
2013-03-06 05:54:00,32.4,31.6,24.98,WSW,237,8.0,-999.0,97,-99.99,,,-99.99,dwt +perl,2013-03-06 13:54:00,
2013-03-06 05:59:00,32.4,31.6,24.98,WSW,238,17.0,-999.0,97,-99.99,,,-99.99,dwt +perl,2013-03-06 13:59:00,
2013-03-06 06:04:00,32.4,31.6,24.98,WSW,240,10.0,-999.0,97,-99.99,,,-99.99,dwt +perl,2013-03-06 14:04:00,
2013-03-06 06:09:00,32.3,31.5,24.98,SW,226,26.0,-999.0,97,-99.99,,,-99.99,dwt +perl,2013-03-06 14:09:00,
2013-03-06 06:14:00,32.2,31.4,24.98,SSE,164,3.0,-999.0,97,-99.99,,,-99.99,dwt +perl,2013-03-06 14:14:00,
2013-03-06 06:19:00,32.1,31.3,24.98,SW,217,7.0,-999.0,97,-99.99,,,-99.99,dwt +perl,2013-03-06 14:19:00,
2013-03-06 06:24:00,32.1,31.3,24.98,SW,233,20.0,-999.0,97,-99.99,,,-99.99,dwt +perl,2013-03-06 14:24:00,
2013-03-06 06:29:00,32.2,31.4,24.98,SW,214,18.0,-999.0,97,-99.99,,,-99.99,dwt +perl,2013-03-06 14:29:00,
2013-03-06 06:34:00,32.3,31.5,24.99,WSW,241,23.0,-999.0,97,-99.99,,,-99.99,dwt +perl,2013-03-06 14:34:00,
2013-03-06 06:39:00,32.2,31.4,24.99,WSW,241,14.0,-999.0,97,-99.99,,,-99.99,dwt +perl,2013-03-06 14:39:00,
2013-03-06 06:44:00,32.2,31.4,24.99,SSW,208,15.0,-999.0,97,-99.99,,,-99.99,dwt +perl,2013-03-06 14:44:00,
2013-03-06 06:49:00,32.3,31.5,24.99,WSW,239,16.0,-999.0,97,-99.99,,,-99.99,dwt +perl,2013-03-06 14:49:00,
2013-03-06 06:54:00,32.2,31.4,25.00,SW,214,12.0,-999.0,97,-99.99,,,-99.99,dwt +perl,2013-03-06 14:54:00,
2013-03-06 06:59:00,32.0,31.2,25.00,SW,220,13.0,-999.0,97,-99.99,,,-99.99,dwt +perl,2013-03-06 14:59:00,
2013-03-06 07:04:00,31.9,31.1,25.00,SW,220,28.0,-999.0,97,-99.99,,,-99.99,dwt +perl,2013-03-06 15:04:00,
2013-03-06 07:09:00,32.0,31.2,25.00,WSW,239,18.0,-999.0,97,-99.99,,,-99.99,dwt +perl,2013-03-06 15:09:00,
2013-03-06 07:14:00,31.9,31.1,25.01,WSW,238,14.0,-999.0,97,-99.99,,,-99.99,dwt +perl,2013-03-06 15:14:00,
2013-03-06 07:19:00,31.9,31.1,25.00,SW,225,25.0,-999.0,97,-99.99,,,-99.99,dwt +perl,2013-03-06 15:19:00,
2013-03-06 07:24:00,31.9,31.1,25.01,SW,214,16.0,-999.0,97,-99.99,,,-99.99,dwt +perl,2013-03-06 15:24:00,
2013-03-06 07:29:00,31.9,31.1,25.01,SW,224,11.0,-999.0,97,-99.99,,,-99.99,dwt +perl,2013-03-06 15:29:00,
2013-03-06 07:34:00,31.9,31.1,25.02,WSW,239,9.0,-999.0,97,-99.99,,,-99.99,dwt +perl,2013-03-06 15:34:00,
2013-03-06 07:39:00,31.9,31.1,25.01,WSW,240,18.0,-999.0,97,-99.99,,,-99.99,dwt +perl,2013-03-06 15:39:00,
2013-03-06 07:44:00,32.0,31.2,25.01,WSW,240,17.0,-999.0,97,-99.99,,,-99.99,dwt +perl,2013-03-06 15:44:00,
2013-03-06 07:49:00,31.9,31.1,25.02,WSW,240,16.0,-999.0,97,-99.99,,,-99.99,dwt +perl,2013-03-06 15:49:00,
2013-03-06 07:54:00,31.9,31.1,25.02,WSW,240,10.0,-999.0,97,-99.99,,,-99.99,dwt +perl,2013-03-06 15:54:00,
2013-03-06 07:59:00,31.9,31.1,25.02,WSW,240,9.0,-999.0,97,-99.99,,,-99.99,dwt +perl,2013-03-06 15:59:00,
2013-03-06 08:04:00,31.9,31.1,25.02,WSW,239,16.0,-999.0,97,-99.99,,,-99.99,dwt +perl,2013-03-06 16:04:00,
2013-03-06 08:09:00,31.9,31.1,25.03,WSW,239,8.0,-999.0,97,-99.99,,,-99.99,dwt +perl,2013-03-06 16:09:00,
2013-03-06 08:14:00,31.8,31.0,25.03,WSW,240,16.0,-999.0,97,-99.99,,,-99.99,dwt +perl,2013-03-06 16:14:00,
2013-03-06 08:19:00,31.7,30.9,25.03,WSW,240,13.0,-999.0,97,-99.99,,,-99.99,dwt +perl,2013-03-06 16:19:00,
2013-03-06 08:24:00,31.6,30.8,25.03,WSW,239,25.0,-999.0,97,-99.99,,,-99.99,dwt +perl,2013-03-06 16:24:00,
2013-03-06 08:29:00,31.5,30.7,25.03,WSW,239,15.0,-999.0,97,-99.99,,,-99.99,dwt +perl,2013-03-06 16:29:00,
2013-03-06 08:34:00,31.3,30.5,25.04,WSW,239,20.0,-999.0,97,-99.99,,,-99.99,dwt +perl,2013-03-06 16:34:00,
2013-03-06 08:39:00,31.3,30.5,25.03,WSW,240,16.0,-999.0,97,-99.99,,,-99.99,dwt +perl,2013-03-06 16:39:00,
2013-03-06 08:44:00,31.3,30.5,25.04,WSW,239,15.0,-999.0,97,-99.99,,,-99.99,dwt +perl,2013-03-06 16:44:00,
2013-03-06 08:49:00,31.2,30.4,25.04,WSW,240,9.0,-999.0,97,-99.99,,,-99.99,dwt +perl,2013-03-06 16:49:00,
2013-03-06 08:54:00,31.2,30.4,25.04,WSW,239,12.0,-999.0,97,-99.99,,,-99.99,dwt +perl,2013-03-06 16:54:00,
2013-03-06 08:59:00,31.2,30.4,25.04,WSW,239,12.0,-999.0,97,-99.99,,,-99.99,dwt +perl,2013-03-06 16:59:00,
2013-03-06 09:04:00,31.2,30.4,25.05,WSW,239,21.0,-999.0,97,-99.99,,,-99.99,dwt +perl,2013-03-06 17:04:00,
2013-03-06 09:09:00,31.1,30.3,25.05,WSW,240,13.0,-999.0,97,-99.99,,,-99.99,dwt +perl,2013-03-06 17:09:00,
2013-03-06 09:14:00,31.3,30.5,25.05,WSW,239,16.0,-999.0,97,-99.99,,,-99.99,dwt +perl,2013-03-06 17:14:00,
2013-03-06 09:19:00,31.4,30.6,25.05,WSW,239,19.0,-999.0,97,-99.99,,,-99.99,dwt +perl,2013-03-06 17:19:00,
2013-03-06 09:24:00,31.4,30.6,25.05,WSW,239,9.0,-999.0,97,-99.99,,,-99.99,dwt +perl,2013-03-06 17:24:00,
2013-03-06 09:29:00,31.5,30.7,25.05,WSW,239,12.0,-999.0,97,-99.99,,,-99.99,dwt +perl,2013-03-06 17:29:00,
2013-03-06 09:34:00,31.0,30.2,25.06,WSW,239,8.0,-999.0,97,-99.99,,,-99.99,dwt +perl,2013-03-06 17:34:00,
2013-03-06 09:39:00,30.7,30.0,25.06,WSW,239,9.0,-999.0,97,-99.99,,,-99.99,dwt +perl,2013-03-06 17:39:00,
2013-03-06 09:44:00,31.1,30.3,25.06,WSW,239,10.0,-999.0,97,-99.99,,,-99.99,dwt +perl,2013-03-06 17:44:00,
2013-03-06 09:49:00,30.9,30.1,25.06,WSW,239,13.0,-999.0,97,-99.99,,,-99.99,dwt +perl,2013-03-06 17:49:00,
2013-03-06 09:54:00,30.9,30.1,25.06,WSW,239,10.0,-999.0,97,-99.99,,,-99.99,dwt +perl,2013-03-06 17:54:00,
2013-03-06 09:59:00,31.0,30.2,25.06,WSW,239,14.0,-999.0,97,-99.99,,,-99.99,dwt +perl,2013-03-06 17:59:00,
2013-03-06 10:04:00,31.1,30.3,25.06,WSW,239,10.0,-999.0,97,-99.99,,,-99.99,dwt +perl,2013-03-06 18:04:00,
2013-03-06 10:09:00,30.9,30.1,25.06,WSW,239,7.0,-999.0,97,-99.99,,,-99.99,dwt +perl,2013-03-06 18:09:00,
2013-03-06 10:14:00,30.6,29.9,25.06,WSW,239,7.0,-999.0,97,-99.99,,,-99.99,dwt +perl,2013-03-06 18:14:00,
2013-03-06 10:19:00,31.0,30.2,25.07,WSW,239,12.0,-999.0,97,-99.99,,,-99.99,dwt +perl,2013-03-06 18:19:00,
2013-03-06 10:24:00,31.1,30.3,25.07,WSW,238,6.0,-999.0,97,-99.99,,,-99.99,dwt +perl,2013-03-06 18:24:00,
2013-03-06 10:29:00,31.3,30.5,25.07,SW,231,10.0,-999.0,97,-99.99,,,-99.99,dwt +perl,2013-03-06 18:29:00,
2013-03-06 10:34:00,31.2,30.4,25.07,SW,218,17.0,-999.0,97,-99.99,,,-99.99,dwt +perl,2013-03-06 18:34:00,
2013-03-06 10:39:00,30.7,30.0,25.07,SW,215,11.0,-999.0,97,-99.99,,,-99.99,dwt +perl,2013-03-06 18:39:00,
2013-03-06 10:44:00,30.8,30.0,25.07,SW,215,12.0,-999.0,97,-99.99,,,-99.99,dwt +perl,2013-03-06 18:44:00,
2013-03-06 10:49:00,30.7,30.0,25.07,SW,215,13.0,-999.0,97,-99.99,,,-99.99,dwt +perl,2013-03-06 18:49:00,
2013-03-06 10:54:00,30.3,29.5,25.07,SW,215,10.0,-999.0,97,-99.99,,,-99.99,dwt +perl,2013-03-06 18:54:00,
2013-03-06 10:59:00,31.1,30.3,25.07,SW,216,8.0,-999.0,97,-99.99,,,-99.99,dwt +perl,2013-03-06 18:59:00,
2013-03-06 11:04:00,31.5,30.7,25.08,SW,215,11.0,-999.0,97,-99.99,,,-99.99,dwt +perl,2013-03-06 19:04:00,
2013-03-06 11:09:00,31.3,30.5,25.08,WSW,237,6.0,-999.0,97,-99.99,,,-99.99,dwt +perl,2013-03-06 19:09:00,
2013-03-06 11:14:00,31.4,30.6,25.08,SW,226,3.0,-999.0,97,-99.99,,,-99.99,dwt +perl,2013-03-06 19:14:00,
2013-03-06 11:19:00,31.9,31.1,25.08,SW,231,4.0,-999.0,97,-99.99,,,-99.99,dwt +perl,2013-03-06 19:19:00,
2013-03-06 11:24:00,31.9,31.1,25.08,WSW,237,6.0,-999.0,97,-99.99,,,-99.99,dwt +perl,2013-03-06 19:24:00,
2013-03-06 11:29:00,31.4,30.6,25.08,WSW,237,5.0,-999.0,97,-99.99,,,-99.99,dwt +perl,2013-03-06 19:29:00,
2013-03-06 11:34:00,30.8,29.8,25.08,SW,226,6.0,-999.0,96,-99.99,,,-99.99,dwt +perl,2013-03-06 19:34:00,
2013-03-06 11:39:00,31.2,30.2,25.08,SW,231,4.0,-999.0,96,-99.99,,,-99.99,dwt +perl,2013-03-06 19:39:00,
2013-03-06 11:44:00,31.5,30.5,25.08,SW,235,7.0,-999.0,96,-99.99,,,-99.99,dwt +perl,2013-03-06 19:44:00,
2013-03-06 11:49:00,31.1,30.1,25.08,SSW,201,3.0,-999.0,96,-99.99,,,-99.99,dwt +perl,2013-03-06 19:49:00,
2013-03-06 11:54:00,31.2,30.2,25.08,SW,228,3.0,-999.0,96,-99.99,,,-99.99,dwt +perl,2013-03-06 19:54:00,
2013-03-06 11:59:00,31.1,29.8,25.08,SW,225,7.0,-999.0,95,-99.99,,,-99.99,dwt +perl,2013-03-06 19:59:00,
2013-03-06 12:04:00,31.3,30.0,25.08,WSW,243,8.0,-999.0,95,-99.99,,,-99.99,dwt +perl,2013-03-06 20:04:00,
2013-03-06 12:09:00,31.6,30.3,25.08,SSW,211,7.0,-999.0,95,-99.99,,,-99.99,dwt +perl,2013-03-06 20:09:00,
2013-03-06 12:14:00,31.0,29.5,25.08,SW,235,4.0,-999.0,94,-99.99,,,-99.99,dwt +perl,2013-03-06 20:14:00,
2013-03-06 12:19:00,31.2,29.9,25.08,West,280,2.0,-999.0,95,-99.99,,,-99.99,dwt +perl,2013-03-06 20:19:00,
2013-03-06 12:24:00,31.4,30.1,25.08,WSW,240,0.0,-999.0,95,-99.99,,,-99.99,dwt +perl,2013-03-06 20:24:00,
2013-03-06 12:29:00,31.7,30.4,25.08,SW,224,7.0,-999.0,95,-99.99,,,-99.99,dwt +perl,2013-03-06 20:29:00,
2013-03-06 12:34:00,31.8,30.5,25.08,SW,232,3.0,-999.0,95,-99.99,,,-99.99,dwt +perl,2013-03-06 20:34:00,
2013-03-06 12:39:00,31.8,30.5,25.08,WSW,239,3.0,-999.0,95,-99.99,,,-99.99,dwt +perl,2013-03-06 20:39:00,
2013-03-06 12:44:00,31.7,30.4,25.08,SW,233,1.0,-999.0,95,-99.99,,,-99.99,dwt +perl,2013-03-06 20:44:00,
2013-03-06 12:49:00,31.5,30.0,25.08,SSW,212,1.0,-999.0,94,-99.99,,,-99.99,dwt +perl,2013-03-06 20:49:00,
2013-03-06 12:54:00,31.7,30.4,25.08,SSW,203,4.0,-999.0,95,-99.99,,,-99.99,dwt +perl,2013-03-06 20:54:00,
2013-03-06 12:59:00,31.5,30.0,25.08,SSW,212,2.0,-999.0,94,-99.99,,,-99.99,dwt +perl,2013-03-06 20:59:00,
2013-03-06 13:04:00,31.4,29.9,25.08,SSW,212,3.0,-999.0,94,-99.99,,,-99.99,dwt +perl,2013-03-06 21:04:00,
2013-03-06 13:09:00,31.7,30.4,25.08,SSW,213,0.0,-999.0,95,-99.99,,,-99.99,dwt +perl,2013-03-06 21:09:00,
2013-03-06 13:14:00,31.7,30.2,25.08,SW,224,4.0,-999.0,94,-99.99,,,-99.99,dwt +perl,2013-03-06 21:14:00,
2013-03-06 13:19:00,31.8,30.5,25.08,SSW,210,4.0,-999.0,95,-99.99,,,-99.99,dwt +perl,2013-03-06 21:19:00,
2013-03-06 13:24:00,31.5,30.0,25.08,SW,220,0.0,-999.0,94,-99.99,,,-99.99,dwt +perl,2013-03-06 21:24:00,
2013-03-06 13:29:00,31.4,29.6,25.08,SSW,212,4.0,-999.0,93,-99.99,,,-99.99,dwt +perl,2013-03-06 21:29:00,
2013-03-06 13:34:00,31.3,29.5,25.08,SW,214,3.0,-999.0,93,-99.99,,,-99.99,dwt +perl,2013-03-06 21:34:00,
2013-03-06 13:39:00,31.5,30.0,25.07,SW,214,0.0,-999.0,94,-99.99,,,-99.99,dwt +perl,2013-03-06 21:39:00,
2013-03-06 13:44:00,31.8,30.3,25.07,SW,214,0.0,-999.0,94,-99.99,,,-99.99,dwt +perl,2013-03-06 21:44:00,
2013-03-06 13:49:00,31.7,29.9,25.08,WSW,238,0.0,-999.0,93,-99.99,,,-99.99,dwt +perl,2013-03-06 21:49:00,
2013-03-06 13:54:00,31.7,30.2,25.07,SW,235,0.0,-999.0,94,-99.99,,,-99.99,dwt +perl,2013-03-06 21:54:00,
2013-03-06 13:59:00,31.9,30.1,25.07,SW,227,3.0,-999.0,93,-99.99,,,-99.99,dwt +perl,2013-03-06 21:59:00,
2013-03-06 14:04:00,32.1,30.6,25.07,SW,226,4.0,-999.0,94,-99.99,,,-99.99,dwt +perl,2013-03-06 22:04:00,
2013-03-06 14:09:00,32.1,30.3,25.07,SW,221,1.0,-999.0,93,-99.99,,,-99.99,dwt +perl,2013-03-06 22:09:00,
2013-03-06 14:14:00,32.1,30.3,25.07,SW,219,4.0,-999.0,93,-99.99,,,-99.99,dwt +perl,2013-03-06 22:14:00,
2013-03-06 14:19:00,32.1,30.3,25.08,WSW,237,3.0,-999.0,93,-99.99,,,-99.99,dwt +perl,2013-03-06 22:19:00,
2013-03-06 14:24:00,32.3,30.5,25.07,SW,223,1.0,-999.0,93,-99.99,,,-99.99,dwt +perl,2013-03-06 22:24:00,
2013-03-06 14:29:00,32.3,30.5,25.08,WSW,253,2.0,-999.0,93,-99.99,,,-99.99,dwt +perl,2013-03-06 22:29:00,
2013-03-06 14:34:00,32.4,30.9,25.08,WSW,253,2.0,-999.0,94,-99.99,,,-99.99,dwt +perl,2013-03-06 22:34:00,
2013-03-06 14:39:00,32.5,31.2,25.08,WSW,251,0.0,-999.0,95,-99.99,,,-99.99,dwt +perl,2013-03-06 22:39:00,
2013-03-06 14:44:00,32.4,31.1,25.08,SSW,198,0.0,-999.0,95,-99.99,,,-99.99,dwt +perl,2013-03-06 22:44:00,
2013-03-06 14:49:00,32.6,31.6,25.08,SSW,198,0.0,-999.0,96,-99.99,,,-99.99,dwt +perl,2013-03-06 22:49:00,
2013-03-06 14:54:00,32.6,31.6,25.08,SSW,199,1.0,-999.0,96,-99.99,,,-99.99,dwt +perl,2013-03-06 22:54:00,
2013-03-06 14:59:00,32.8,31.8,25.08,SSW,199,0.0,-999.0,96,-99.99,,,-99.99,dwt +perl,2013-03-06 22:59:00,
2013-03-06 15:04:00,33.0,32.0,25.08,SW,216,1.0,-999.0,96,-99.99,,,-99.99,dwt +perl,2013-03-06 23:04:00,
2013-03-06 15:09:00,33.0,32.0,25.08,SW,225,0.0,-999.0,96,-99.99,,,-99.99,dwt +perl,2013-03-06 23:09:00,
2013-03-06 15:14:00,33.2,32.2,25.08,SW,226,1.0,-999.0,96,-99.99,,,-99.99,dwt +perl,2013-03-06 23:14:00,
2013-03-06 15:19:00,33.3,32.0,25.08,SSW,199,4.0,-999.0,95,-99.99,,,-99.99,dwt +perl,2013-03-06 23:19:00,
2013-03-06 15:24:00,33.3,32.0,25.08,SSW,199,0.0,-999.0,95,-99.99,,,-99.99,dwt +perl,2013-03-06 23:24:00,
2013-03-06 15:29:00,33.5,32.2,25.08,West,270,4.0,-999.0,95,-99.99,,,-99.99,dwt +perl,2013-03-06 23:29:00,
2013-03-06 15:34:00,33.5,32.2,25.08,SW,228,2.0,-999.0,95,-99.99,,,-99.99,dwt +perl,2013-03-06 23:34:00,
2013-03-06 15:39:00,33.4,32.1,25.08,SW,235,2.0,-999.0,95,-99.99,,,-99.99,dwt +perl,2013-03-06 23:39:00,
2013-03-06 15:44:00,33.7,32.4,25.08,SW,226,3.0,-999.0,95,-99.99,,,-99.99,dwt +perl,2013-03-06 23:44:00,
2013-03-06 15:49:00,33.6,32.6,25.08,SW,220,6.0,-999.0,96,-99.99,,,-99.99,dwt +perl,2013-03-06 23:49:00,
2013-03-06 15:54:00,33.2,32.2,25.07,WSW,247,6.0,-999.0,96,-99.99,,,-99.99,dwt +perl,2013-03-06 23:54:00,
2013-03-06 15:59:00,33.0,32.0,25.08,WSW,258,5.0,-999.0,96,-99.99,,,-99.99,dwt +perl,2013-03-06 23:59:00,
2013-03-06 16:04:00,33.2,32.2,25.07,WSW,238,4.0,-999.0,96,-99.99,,,-99.99,dwt +perl,2013-03-07 00:04:00,
2013-03-06 16:09:00,33.5,32.5,25.07,SSW,212,5.0,-999.0,96,-99.99,,,-99.99,dwt +perl,2013-03-07 00:09:00,
2013-03-06 16:14:00,33.6,32.6,25.07,SW,230,2.0,-999.0,96,-99.99,,,-99.99,dwt +perl,2013-03-07 00:14:00,
2013-03-06 16:19:00,33.7,32.9,25.07,SW,230,0.0,-999.0,97,-99.99,,,-99.99,dwt +perl,2013-03-07 00:19:00,
2013-03-06 16:24:00,33.7,32.9,25.07,SW,230,0.0,-999.0,97,-99.99,,,-99.99,dwt +perl,2013-03-07 00:24:00,
2013-03-06 16:29:00,33.4,32.4,25.07,SW,230,0.0,-999.0,96,-99.99,,,-99.99,dwt +perl,2013-03-07 00:29:00,
2013-03-06 16:34:00,33.1,32.3,25.07,West,276,2.0,-999.0,97,-99.99,,,-99.99,dwt +perl,2013-03-07 00:34:00,
2013-03-06 16:39:00,32.6,31.6,25.07,WSW,251,4.0,-999.0,96,-99.99,,,-99.99,dwt +perl,2013-03-07 00:39:00,
2013-03-06 16:44:00,32.4,31.4,25.07,West,262,3.0,-999.0,96,-99.99,,,-99.99,dwt +perl,2013-03-07 00:44:00,
2013-03-06 16:49:00,32.3,31.5,25.07,West,266,4.0,-999.0,97,-99.99,,,-99.99,dwt +perl,2013-03-07 00:49:00,
2013-03-06 16:54:00,32.0,31.2,25.07,WNW,283,5.0,-999.0,97,-99.99,,,-99.99,dwt +perl,2013-03-07 00:54:00,
2013-03-06 16:59:00,31.8,31.0,25.07,West,272,2.0,-999.0,97,-99.99,,,-99.99,dwt +perl,2013-03-07 00:59:00,
2013-03-06 17:04:00,32.0,31.2,25.06,West,270,0.0,-999.0,97,-99.99,,,-99.99,dwt +perl,2013-03-07 01:04:00,
2013-03-06 17:09:00,32.0,31.2,25.06,West,267,0.0,-999.0,97,-99.99,,,-99.99,dwt +perl,2013-03-07 01:09:00,
2013-03-06 17:14:00,31.9,31.1,25.06,West,267,1.0,-999.0,97,-99.99,,,-99.99,dwt +perl,2013-03-07 01:14:00,
2013-03-06 17:19:00,31.9,31.1,25.06,West,264,4.0,-999.0,97,-99.99,,,-99.99,dwt +perl,2013-03-07 01:19:00,
2013-03-06 17:24:00,31.8,31.0,25.06,SW,235,2.0,-999.0,97,-99.99,,,-99.99,dwt +perl,2013-03-07 01:24:00,
2013-03-06 17:29:00,31.6,30.8,25.06,SW,235,2.0,-999.0,97,-99.99,,,-99.99,dwt +perl,2013-03-07 01:29:00,
2013-03-06 17:39:00,31.5,30.7,25.06,SW,235,3.0,-999.0,97,-99.99,,,-99.99,dwt +perl,2013-03-07 01:39:00,
2013-03-06 17:44:00,31.6,30.8,25.06,SW,235,0.0,-999.0,97,-99.99,,,-99.99,dwt +perl,2013-03-07 01:44:00,
2013-03-06 17:49:00,31.5,30.7,25.06,SW,235,0.0,-999.0,97,-99.99,,,-99.99,dwt +perl,2013-03-07 01:49:00,
2013-03-06 17:54:00,31.5,30.7,25.06,SSW,206,0.0,-999.0,97,-99.99,,,-99.99,dwt +perl,2013-03-07 01:54:00,
2013-03-06 17:59:00,31.5,30.7,25.06,SSW,206,2.0,-999.0,97,-99.99,,,-99.99,dwt +perl,2013-03-07 01:59:00,
2013-03-06 18:04:00,31.4,30.6,25.06,SSW,206,1.0,-999.0,97,-99.99,,,-99.99,dwt +perl,2013-03-07 02:04:00,
2013-03-06 18:09:00,31.5,30.7,25.06,SSW,206,0.0,-999.0,97,-99.99,,,-99.99,dwt +perl,2013-03-07 02:09:00,
2013-03-06 18:19:00,31.7,30.9,25.06,SSW,192,2.0,-999.0,97,-99.99,,,-99.99,dwt +perl,2013-03-07 02:19:00,
2013-03-06 18:24:00,31.7,30.9,25.06,SE,130,3.0,-999.0,97,-99.99,,,-99.99,dwt +perl,2013-03-07 02:24:00,
2013-03-06 18:29:00,31.7,30.9,25.06,ESE,119,4.0,-999.0,97,-99.99,,,-99.99,dwt +perl,2013-03-07 02:29:00,
2013-03-06 18:34:00,31.6,30.8,25.06,ESE,119,2.0,-999.0,97,-99.99,,,-99.99,dwt +perl,2013-03-07 02:34:00,
2013-03-06 18:39:00,31.5,30.7,25.05,East,85,6.0,-999.0,97,-99.99,,,-99.99,dwt +perl,2013-03-07 02:39:00,
2013-03-06 18:44:00,31.4,30.6,25.05,East,79,6.0,-999.0,97,-99.99,,,-99.99,dwt +perl,2013-03-07 02:44:00,
2013-03-06 18:49:00,31.2,30.4,25.05,East,80,2.0,-999.0,97,-99.99,,,-99.99,dwt +perl,2013-03-07 02:49:00,
2013-03-06 18:59:00,31.0,30.0,25.06,East,81,5.0,-999.0,96,-99.99,,,-99.99,dwt +perl,2013-03-07 02:59:00,
2013-03-06 19:04:00,31.0,30.0,25.06,SSW,194,6.0,-999.0,96,-99.99,,,-99.99,dwt +perl,2013-03-07 03:04:00,
2013-03-06 19:09:00,31.1,30.1,25.06,SSW,194,4.0,-999.0,96,-99.99,,,-99.99,dwt +perl,2013-03-07 03:09:00,
2013-03-06 19:14:00,31.1,30.1,25.05,SE,134,6.0,-999.0,96,-99.99,,,-99.99,dwt +perl,2013-03-07 03:14:00,
2013-03-06 19:19:00,31.1,30.1,25.05,East,95,6.0,-999.0,96,-99.99,,,-99.99,dwt +perl,2013-03-07 03:19:00,
2013-03-06 19:24:00,31.0,29.7,25.05,East,93,3.0,-999.0,95,-99.99,,,-99.99,dwt +perl,2013-03-07 03:24:00,
2013-03-06 19:29:00,31.0,29.5,25.05,ESE,110,3.0,-999.0,94,-99.99,,,-99.99,dwt +perl,2013-03-07 03:29:00,
2013-03-06 19:39:00,31.2,29.7,25.06,ESE,123,0.0,-999.0,94,-99.99,,,-99.99,dwt +perl,2013-03-07 03:39:00,
2013-03-06 19:44:00,31.3,29.8,25.06,SE,129,2.0,-999.0,94,-99.99,,,-99.99,dwt +perl,2013-03-07 03:44:00,
2013-03-06 19:49:00,31.3,29.2,25.05,ESE,113,3.0,-999.0,92,-99.99,,,-99.99,dwt +perl,2013-03-07 03:49:00,
2013-03-06 19:54:00,31.3,29.5,25.05,East,97,2.0,-999.0,93,-99.99,,,-99.99,dwt +perl,2013-03-07 03:54:00,
2013-03-06 19:59:00,31.2,29.4,25.06,East,95,0.0,-999.0,93,-99.99,,,-99.99,dwt +perl,2013-03-07 03:59:00,
2013-03-06 20:04:00,31.1,29.6,25.06,East,95,0.0,-999.0,94,-99.99,,,-99.99,dwt +perl,2013-03-07 04:04:00,
2013-03-06 20:09:00,31.1,29.6,25.06,East,95,1.0,-999.0,94,-99.99,,,-99.99,dwt +perl,2013-03-07 04:09:00,
2013-03-06 20:14:00,30.8,29.3,25.06,South,181,4.0,-999.0,94,-99.99,,,-99.99,dwt +perl,2013-03-07 04:14:00,
2013-03-06 20:16:00,30.7,29.2,25.05,South,189,1.0,-999.0,94,-99.99,,,-99.99,dwt +perl,2013-03-07 04:16:00,
2013-03-06 20:24:00,30.7,29.2,25.05,South,189,1.0,-999.0,94,-99.99,,,-99.99,dwt +perl,2013-03-07 04:24:00,
2013-03-06 20:44:00,30.9,29.4,25.06,SSE,164,1.0,-999.0,94,-99.99,,,-99.99,dwt +perl,2013-03-07 04:44:00,
2013-03-06 20:49:00,30.9,29.4,25.06,SSE,164,1.0,-999.0,94,-99.99,,,-99.99,dwt +perl,2013-03-07 04:49:00,
2013-03-06 20:59:00,30.8,29.3,25.05,SE,139,0.0,-999.0,94,-99.99,,,-99.99,dwt +perl,2013-03-07 04:59:00,
2013-03-06 21:04:00,30.6,29.1,25.05,SE,139,0.0,-999.0,94,-99.99,,,-99.99,dwt +perl,2013-03-07 05:04:00,
2013-03-06 21:09:00,30.6,29.3,25.05,SSE,155,3.0,-999.0,95,-99.99,,,-99.99,dwt +perl,2013-03-07 05:09:00,
2013-03-06 21:14:00,30.6,29.3,25.06,SSE,168,3.0,-999.0,95,-99.99,,,-99.99,dwt +perl,2013-03-07 05:14:00,
2013-03-06 21:19:00,30.5,29.2,25.06,South,170,2.0,-999.0,95,-99.99,,,-99.99,dwt +perl,2013-03-07 05:19:00,
2013-03-06 21:24:00,30.4,29.1,25.05,South,170,2.0,-999.0,95,-99.99,,,-99.99,dwt +perl,2013-03-07 05:24:00,
2013-03-06 21:29:00,30.3,29.0,25.05,South,170,2.0,-999.0,95,-99.99,,,-99.99,dwt +perl,2013-03-07 05:29:00,
2013-03-06 21:34:00,30.3,29.3,25.05,SSW,195,6.0,-999.0,96,-99.99,,,-99.99,dwt +perl,2013-03-07 05:34:00,
2013-03-06 21:39:00,30.3,29.3,25.05,SSW,197,6.0,-999.0,96,-99.99,,,-99.99,dwt +perl,2013-03-07 05:39:00,
2013-03-06 21:44:00,30.3,29.3,25.05,SSW,197,3.0,-999.0,96,-99.99,,,-99.99,dwt +perl,2013-03-07 05:44:00,
2013-03-06 21:49:00,30.2,29.2,25.05,SSW,197,5.0,-999.0,96,-99.99,,,-99.99,dwt +perl,2013-03-07 05:49:00,
2013-03-06 21:54:00,30.2,29.2,25.06,SSW,197,4.0,-999.0,96,-99.99,,,-99.99,dwt +perl,2013-03-07 05:54:00,
2013-03-06 21:59:00,30.1,29.1,25.05,SSW,199,7.0,-999.0,96,-99.99,,,-99.99,dwt +perl,2013-03-07 05:59:00,
2013-03-06 22:04:00,29.9,28.9,25.05,SSW,199,6.0,-999.0,96,-99.99,,,-99.99,dwt +perl,2013-03-07 06:04:00,
2013-03-06 22:09:00,29.8,28.8,25.05,SSW,199,6.0,-999.0,96,-99.99,,,-99.99,dwt +perl,2013-03-07 06:09:00,
2013-03-06 22:14:00,29.8,28.8,25.05,SSW,199,5.0,-999.0,96,-99.99,,,-99.99,dwt +perl,2013-03-07 06:14:00,
2013-03-06 22:19:00,29.8,28.8,25.05,SSW,199,2.0,-999.0,96,-99.99,,,-99.99,dwt +perl,2013-03-07 06:19:00,
2013-03-06 22:24:00,29.7,28.7,25.05,SSW,199,3.0,-999.0,96,-99.99,,,-99.99,dwt +perl,2013-03-07 06:24:00,
2013-03-06 22:29:00,29.6,28.6,25.05,SSW,199,0.0,-999.0,96,-99.99,,,-99.99,dwt +perl,2013-03-07 06:29:00,
2013-03-06 22:34:00,29.4,28.4,25.05,SSW,199,2.0,-999.0,96,-99.99,,,-99.99,dwt +perl,2013-03-07 06:34:00,
2013-03-06 22:39:00,29.2,28.2,25.05,SSW,199,4.0,-999.0,96,-99.99,,,-99.99,dwt +perl,2013-03-07 06:39:00,
2013-03-06 22:44:00,29.1,28.1,25.05,SSW,199,2.0,-999.0,96,-99.99,,,-99.99,dwt +perl,2013-03-07 06:44:00,
2013-03-06 22:49:00,29.0,27.8,25.05,SSW,199,2.0,-999.0,95,-99.99,,,-99.99,dwt +perl,2013-03-07 06:49:00,
2013-03-06 22:54:00,29.0,27.8,25.05,SSW,199,0.0,-999.0,95,-99.99,,,-99.99,dwt +perl,2013-03-07 06:54:00,
2013-03-06 22:59:00,29.0,27.5,25.04,SSW,199,4.0,-999.0,94,-99.99,,,-99.99,dwt +perl,2013-03-07 06:59:00,
2013-03-06 23:04:00,29.0,27.2,25.04,SSW,199,1.0,-999.0,93,-99.99,,,-99.99,dwt +perl,2013-03-07 07:04:00,
2013-03-06 23:09:00,28.9,27.1,25.04,SSW,199,5.0,-999.0,93,-99.99,,,-99.99,dwt +perl,2013-03-07 07:09:00,
2013-03-06 23:14:00,28.9,26.9,25.04,SSW,205,2.0,-999.0,92,-99.99,,,-99.99,dwt +perl,2013-03-07 07:14:00,
2013-03-06 23:19:00,28.7,26.4,25.03,SSW,206,3.0,-999.0,91,-99.99,,,-99.99,dwt +perl,2013-03-07 07:19:00,
2013-03-06 23:24:00,28.6,26.3,25.03,SSW,206,1.0,-999.0,91,-99.99,,,-99.99,dwt +perl,2013-03-07 07:24:00,
2013-03-06 23:29:00,28.5,25.9,25.03,SW,218,5.0,-999.0,90,-99.99,,,-99.99,dwt +perl,2013-03-07 07:29:00,
2013-03-06 23:34:00,28.5,25.9,25.03,SW,214,1.0,-999.0,90,-99.99,,,-99.99,dwt +perl,2013-03-07 07:34:00,
2013-03-06 23:39:00,28.5,25.7,25.03,SW,214,6.0,-999.0,89,-99.99,,,-99.99,dwt +perl,2013-03-07 07:39:00,
2013-03-06 23:44:00,28.5,25.7,25.03,SW,218,7.0,-999.0,89,-99.99,,,-99.99,dwt +perl,2013-03-07 07:44:00,
2013-03-06 23:49:00,28.6,25.5,25.03,SW,217,3.0,-999.0,88,-99.99,,,-99.99,dwt +perl,2013-03-07 07:49:00,
2013-03-06 23:54:00,28.8,26.0,25.03,SW,218,5.0,-999.0,89,-99.99,,,-99.99,dwt +perl,2013-03-07 07:54:00,
2013-03-06 23:59:00,29.1,25.7,25.03,SW,218,9.0,-999.0,87,-99.99,,,-99.99,dwt +perl,2013-03-07 07:59:00,